Location: ECC Obs
(38.4314°N, 90.9815°W)
Time: 14:56:36
(UTC-05:00)

Explorer 7 - All Passes

Search period start: 03 April 2020 00:00
Search period end: 13 April 2020 00:00
Orbit: 485 x 679 km, 50.3° (Epoch: 03 April)

Date Brightness Start Highest point End Pass type
(mag) Time Alt. Az. Time Alt. Az. Time Alt. Az.
03 Apr - 01:12:47 10° NW 01:16:12 20° N 01:19:44 10° ENE night (unlit)
03 Apr - 02:53:10 10° NW 02:57:42 44° NNE 03:02:23 10° ESE night (unlit)
03 Apr - 04:33:49 10° WNW 04:38:20 40° SW 04:42:53 10° SSE visible
03 Apr - 20:13:39 10° SSW 20:17:25 39° SE 20:21:26 10° ENE visible
03 Apr - 21:54:04 10° W 21:57:59 38° NNW 22:02:09 10° NE visible
03 Apr - 23:36:24 10° NW 23:39:33 19° N 23:42:49 10° NE visible
04 Apr - 01:17:43 10° NW 01:21:23 23° NNE 01:25:11 10° ENE night (unlit)
04 Apr - 02:57:58 10° NW 03:02:40 64° NNE 03:07:31 10° ESE night (unlit)
04 Apr - 04:39:06 10° WNW 04:43:02 25° SW 04:46:59 10° S visible
04 Apr - 20:18:11 10° SW 20:22:11 68° SE 20:26:28 10° ENE visible
04 Apr - 21:59:23 10° W 22:03:04 28° NNW 22:06:56 10° NE visible
04 Apr - 23:41:43 10° NW 23:44:47 18° N 23:47:57 10° NE visible
05 Apr - 01:22:34 10° NW 01:26:32 27° NNE 01:30:38 10° E night (unlit)
05 Apr - 03:02:49 10° NW 03:07:34 86° SW 03:12:28 10° SE night (unlit)
05 Apr - 04:44:55 10° W 04:47:40 15° SW 04:50:27 10° SSW night (unlit)
05 Apr - 18:44:42 10° SSE 18:47:02 15° SE 18:49:28 10° E daylight
05 Apr - 20:23:01 10° WSW 20:27:02 74° NW 20:31:22 10° NE visible
05 Apr - 22:04:49 10° WNW 22:08:12 22° NNW 22:11:44 10° NE visible
05 Apr - 23:46:52 10° NW 23:50:00 18° N 23:53:15 10° NE visible
06 Apr - 01:27:21 10° NW 01:31:37 35° NNE 01:36:02 10° E night (unlit)
06 Apr - 03:07:45 10° WNW 03:12:23 55° SW 03:17:09 10° SE night (unlit)
06 Apr - 18:48:21 10° S 18:51:40 26° SE 18:55:09 10° ENE daylight
06 Apr - 20:28:04 10° WSW 20:31:59 47° NNW 20:36:10 10° NE visible
06 Apr - 22:10:16 10° WNW 22:13:23 19° N 22:16:37 10° NE visible
06 Apr - 23:51:53 10° NW 23:55:13 20° NNE 23:58:40 10° ENE visible
07 Apr - 01:32:08 10° NW 01:36:37 49° NNE 01:41:17 10° ESE night (unlit)
07 Apr - 03:12:52 10° WNW 03:17:08 34° SW 03:21:31 10° SSE night (unlit)
07 Apr - 18:52:37 10° SSW 18:56:22 45° SE 19:00:21 10° ENE daylight
07 Apr - 20:33:18 10° W 20:37:00 33° NNW 20:40:56 10° NE visible
07 Apr - 22:15:40 10° NW 22:18:36 17° N 22:21:38 10° NE visible
07 Apr - 23:56:46 10° NW 00:00:23 23° NNE 00:04:09 10° ENE visible
08 Apr - 01:36:57 10° NW 01:41:33 72° NE 01:46:22 10° ESE night (unlit)
08 Apr - 03:18:16 10° W 03:21:50 21° SW 03:25:27 10° S night (unlit)
08 Apr - 18:57:16 10° SW 19:01:09 79° SE 19:05:20 10° NE daylight
08 Apr - 20:38:40 10° WNW 20:42:05 25° NNW 20:45:41 10° NE visible
08 Apr - 22:20:56 10° NW 22:23:49 17° N 22:26:48 10° NE visible
09 Apr - 00:01:35 10° NW 00:05:29 29° NNE 00:09:35 10° E visible
09 Apr - 01:41:48 10° NW 01:46:25 75° SW 01:51:14 10° SE night (unlit)
09 Apr - 03:24:26 10° WSW 03:26:27 13° SW 03:28:30 10° SSW night (unlit)
09 Apr - 17:23:21 10° S 17:25:57 17° SE 17:28:38 10° E daylight
09 Apr - 19:02:08 10° WSW 19:06:02 63° NNW 19:10:11 10° NE daylight
09 Apr - 20:44:07 10° WNW 20:47:14 20° NNW 20:50:30 10° NE visible
09 Apr - 22:26:02 10° NW 22:29:02 18° N 22:32:09 10° NE visible
10 Apr - 00:06:21 10° NW 00:10:33 38° NNE 00:14:57 10° E visible
10 Apr - 01:46:47 10° WNW 01:51:13 47° SW 01:55:50 10° SSE night (unlit)
10 Apr - 17:27:13 10° SSW 17:30:36 30° SE 17:34:08 10° ENE daylight
10 Apr - 19:07:15 10° W 19:11:00 41° NNW 19:14:58 10° NE daylight
10 Apr - 20:49:34 10° NW 20:52:25 18° N 20:55:24 10° NE visible
10 Apr - 22:30:59 10° NW 22:34:14 20° NNE 22:37:36 10° ENE visible
11 Apr - 00:11:07 10° NW 00:15:31 54° NNE 00:20:09 10° ESE visible
11 Apr - 01:51:58 10° WNW 01:55:57 29° SW 02:00:05 10° SSE night (unlit)
11 Apr - 17:31:36 10° SW 17:35:20 53° SE 17:39:16 10° ENE daylight
11 Apr - 19:12:32 10° W 19:16:02 29° NNW 19:19:42 10° NE daylight
11 Apr - 20:54:56 10° NW 20:57:38 16° N 21:00:26 10° NE visible
11 Apr - 22:35:49 10° NW 22:39:22 24° NNE 22:43:04 10° ENE visible
12 Apr - 00:15:55 10° NW 00:20:25 81° NE 00:25:10 10° SE visible
12 Apr - 01:57:31 10° W 02:00:38 18° SW 02:03:48 10° S night (unlit)
12 Apr - 15:59:05 10° SE 16:00:16 11° SE 16:01:28 10° ESE daylight
12 Apr - 17:36:19 10° SW 17:40:09 88° NW 17:44:12 10° NE daylight
12 Apr - 19:17:57 10° WNW 19:21:08 22° NNW 19:24:28 10° NE daylight
12 Apr - 21:00:09 10° NW 21:02:51 16° N 21:05:40 10° NE visible
12 Apr - 22:40:35 10° NW 22:44:27 30° NNE 22:48:30 10° E visible
